Location: Haut Kerinec
(48.0623°N, 4.4081°W)
Time: 22:31:19
(UTC+00:00)

STARLINK-1254 - Pass Details

Date: 06 October 2020
Orbit: 548 x 551 km, 53.0° (Epoch: 26 October)

Event Time Altitude Azimuth Distance (km) Brightness Sun altitude
Rises 19:23:48 0° 196° (SSW) 2,701 7.2 -17.1°
Reaches altitude 10° 19:26:31 10° 177° (S) 1,813 6.1 -17.6°
Enters shadow 19:27:29 14° 166° (SSE) 1,574 5.7 -17.7°
